Weather History for KSRQ - January, 2013

Change the Weather History Date:

Saturday, January 12, 2013

  Actual Average Record
Temperature  
Mean Temperature 74 °F 61 °F  
Max Temperature 84 °F 71 °F 86 °F (1993)
Min Temperature 64 °F 52 °F 24 °F (1927)
Degree Days  
Heating Degree Days 0 5  
Month to date heating degree days 3 69  
Since 1 July heating degree days 121 224  
Cooling Degree Days 9 2  
Month to date cooling degree days 64 24  
Year to date cooling degree days 64 24  
Growing Degree Days 22 (Base 50)    
Moisture  
Dew Point 65 °F    
Average Humidity 80    
Maximum Humidity 93    
Minimum Humidity 58    
Precipitation  
Precipitation 0.00 in 0.08 in 2.00 in (1964)
Month to date precipitation 0.09 1.35  
Year to date precipitation 0.09 1.35  
Sea Level Pressure  
Sea Level Pressure 30.12 in    
Wind  
Wind Speed 7 mph (ESE)    
Max Wind Speed 18 mph    
Max Gust Speed 24 mph    
Visibility 10 miles    
Events      
T = Trace of Precipitation, MM = Missing Value Source: NWS Daily Summary

Daily Weather History Graph

Daily Weather History Graph

Search for Another Location

Airport or City:

Trip Planner

Search our weather history database for the weather conditions in past years. The results will help you decide how hot, cold, wet, or windy it might be!

Date:

Astronomy

Jan. 12, 2013 Rise Set
Actual Time 7:21 AM EST 5:55 PM EST
Civil Twilight 6:56 AM EST 6:21 PM EST
Nautical Twilight 6:27 AM EST 6:49 PM EST
Astronomical Twilight 5:59 AM EST 7:17 PM EST
Moon 7:48 AM EST (1/12) 7:12 PM EST (1/12)
Length of Visible Light 11h 24m
Length of Day
10h 34m
New Moon, 1% of the Moon is Illuminated
Jan 12
New Moon
Jan 18
First Quarter
Jan 26
Full
Feb 3
Last Quarter
Feb 10
New

Hourly Weather History & Observations

Time (EST) Temp. Heat Index Dew Point Humidity Pressure Visibility Wind Dir Wind Speed Gust Speed Precip Events Conditions
12:53 AM 66.0 °F - 64.0 °F 93% 30.17 in 10.0 mi ENE 3.5 mph - N/A   Clear
1:53 AM 64.9 °F - 63.0 °F 93% 30.16 in 10.0 mi East 5.8 mph - N/A   Clear
2:53 AM 64.9 °F - 63.0 °F 93% 30.14 in 10.0 mi East 5.8 mph - N/A   Clear
3:53 AM 64.9 °F - 63.0 °F 93% 30.13 in 10.0 mi ESE 6.9 mph - N/A   Clear
4:53 AM 64.9 °F - 63.0 °F 93% 30.13 in 10.0 mi East 6.9 mph - N/A   Clear
5:53 AM 64.0 °F - 63.0 °F 96% 30.13 in 10.0 mi East 6.9 mph - N/A   Clear
6:53 AM 64.9 °F - 63.0 °F 93% 30.14 in 10.0 mi East 9.2 mph - N/A   Clear
7:53 AM 66.0 °F - 63.0 °F 90% 30.15 in 10.0 mi ESE 8.1 mph - N/A   Clear
8:53 AM 69.1 °F - 64.9 °F 87% 30.16 in 10.0 mi ESE 8.1 mph - N/A   Clear
9:53 AM 75.0 °F - 66.0 °F 73% 30.17 in 10.0 mi ESE 11.5 mph - N/A   Clear
10:53 AM 79.0 °F - 66.9 °F 66% 30.15 in 10.0 mi ESE 15.0 mph - N/A   Partly Cloudy
11:43 AM 80.6 °F 82.7 °F 66.2 °F 61% 30.13 in 10.0 mi SE 15.0 mph - N/A   Mostly Cloudy
11:53 AM 78.1 °F - 66.0 °F 66% 30.12 in 10.0 mi ESE 12.7 mph - N/A   Mostly Cloudy
12:02 PM 80.6 °F 82.7 °F 66.2 °F 61% 30.12 in 10.0 mi ESE 12.7 mph - N/A   Scattered Clouds
12:53 PM 81.0 °F 82.7 °F 64.9 °F 58% 30.09 in 10.0 mi East 13.8 mph 19.6 mph N/A   Mostly Cloudy
1:53 PM 81.0 °F 82.5 °F 64.0 °F 56% 30.08 in 10.0 mi SE 9.2 mph - N/A   Partly Cloudy
2:53 PM 77.0 °F - 66.9 °F 71% 30.07 in 10.0 mi SW 8.1 mph - N/A   Clear
3:53 PM 77.0 °F - 66.9 °F 71% 30.08 in 10.0 mi SW 9.2 mph - N/A   Scattered Clouds
4:53 PM 75.0 °F - 66.9 °F 76% 30.10 in 10.0 mi West 5.8 mph - N/A   Partly Cloudy
5:53 PM 73.0 °F - 66.0 °F 79% 30.10 in 10.0 mi West 3.5 mph - N/A   Clear
6:53 PM 71.1 °F - 66.0 °F 84% 30.11 in 10.0 mi Calm Calm - N/A   Partly Cloudy
7:53 PM 69.1 °F - 66.0 °F 90% 30.10 in 10.0 mi Calm Calm - N/A   Partly Cloudy
8:53 PM 68.0 °F - 64.9 °F 90% 30.09 in 10.0 mi Calm Calm - N/A   Partly Cloudy
9:53 PM 66.9 °F - 64.0 °F 90% 30.08 in 10.0 mi East 3.5 mph - N/A   Partly Cloudy
10:53 PM 68.0 °F - 64.0 °F 87% 30.09 in 10.0 mi ESE 6.9 mph - N/A   Clear
11:53 PM 70.0 °F - 64.0 °F 81% 30.08 in 10.0 mi ESE 12.7 mph - N/A   Mostly Cloudy